TimeEDT,TemperatureF,Dew PointF,Humidity,Sea Level PressureIn,VisibilityMPH,Wind Direction,Wind SpeedMPH,Gust SpeedMPH,PrecipitationIn,Events,Conditions,WindDirDegrees,DateUTC
12:54 AM,57.0,55.0,93,29.52,-9999.0,NE,17.3,29.9,N/A,,Unknown,50,2013-06-14 04:54:00
1:54 AM,55.9,54.0,93,29.52,-9999.0,NE,13.8,28.8,0.13,,Unknown,50,2013-06-14 05:54:00
2:54 AM,55.0,54.0,96,29.55,-9999.0,NNE,13.8,24.2,0.30,,Unknown,20,2013-06-14 06:54:00
3:54 AM,55.0,53.1,93,29.53,-9999.0,NNE,15.0,27.6,0.24,,Unknown,30,2013-06-14 07:54:00
4:54 AM,55.0,53.1,93,29.57,-9999.0,NNE,16.1,23.0,0.09,,Unknown,20,2013-06-14 08:54:00
5:54 AM,55.0,53.1,93,29.60,-9999.0,NNE,16.1,24.2,0.03,,Unknown,20,2013-06-14 09:54:00
6:54 AM,55.0,53.1,93,29.61,-9999.0,NNE,15.0,26.5,0.02,,Unknown,20,2013-06-14 10:54:00
7:54 AM,55.9,52.0,87,29.64,-9999.0,NNE,18.4,28.8,N/A,,Unknown,20,2013-06-14 11:54:00
8:54 AM,57.0,51.1,81,29.66,-9999.0,NNE,15.0,28.8,N/A,,Unknown,20,2013-06-14 12:54:00
9:54 AM,60.1,51.1,72,29.67,-9999.0,NNE,13.8,23.0,N/A,,Unknown,20,2013-06-14 13:54:00
11:54 AM,55.9,50.0,80,29.73,-9999.0,North,12.7,-,N/A,,Unknown,10,2013-06-14 15:54:00
12:54 PM,63.0,48.9,60,29.75,-9999.0,North,8.1,19.6,N/A,,Unknown,350,2013-06-14 16:54:00
1:54 PM,63.0,51.1,65,29.76,-9999.0,NNW,8.1,-,N/A,,Unknown,330,2013-06-14 17:54:00
2:54 PM,62.1,52.0,70,29.77,-9999.0,NW,8.1,-,N/A,,Unknown,320,2013-06-14 18:54:00
3:54 PM,61.0,53.1,75,29.78,-9999.0,WNW,3.5,-,N/A,,Unknown,300,2013-06-14 19:54:00
4:54 PM,64.9,51.1,61,29.76,-9999.0,West,4.6,-,N/A,,Unknown,270,2013-06-14 20:54:00
5:54 PM,64.9,52.0,63,29.78,-9999.0,West,9.2,-,N/A,,Unknown,270,2013-06-14 21:54:00
6:54 PM,64.0,54.0,70,29.78,-9999.0,West,6.9,-,N/A,,Unknown,260,2013-06-14 22:54:00
7:54 PM,62.1,54.0,75,29.79,-9999.0,West,5.8,-,N/A,,Unknown,260,2013-06-14 23:54:00
8:54 PM,60.1,55.9,86,29.81,-9999.0,West,8.1,-,N/A,,Unknown,260,2013-06-15 00:54:00
9:54 PM,60.1,57.0,90,29.81,-9999.0,West,8.1,-,N/A,,Unknown,260,2013-06-15 01:54:00
10:54 PM,60.1,57.0,90,29.82,-9999.0,West,8.1,-,N/A,,Unknown,260,2013-06-15 02:54:00
11:54 PM,60.1,57.0,90,29.83,-9999.0,West,10.4,-,N/A,,Unknown,270,2013-06-15 03:54:00